Location: Venise Bay
(45.0825°N, 73.1481°W)
Time: 06:23:41
(UTC-05:00)

ISS - Pass Details

Date: 24 January 2020
Orbit: 415 x 423 km, 51.6° (Epoch: 27 February)

Event Time Altitude Azimuth Distance (km) Brightness Sun altitude
Rises 18:31:51 0° 256° (WSW) 2,374 1.8 -18.1°
Reaches altitude 10° 18:34:00 10° 262° (W) 1,510 0.3 -18.5°
Maximum altitude 18:37:18 48° 338° (NNW) 566 -3.1 -19.1°
Enters shadow 18:37:48 43° 8° (N) 605 -3.2 -19.2°
